Tracking 35274 objects as of 11-Sep-2026
HD Live streaming from Space Station
objects crossing your sky now

OTTER PUP 2

Track OTTER PUP 2 now!
10-day predictions
OTTER PUP 2 is classified as:


NORAD ID: 64537
Int'l Code: 2025-135K
Launch date: June 23, 2025
Source: United States (US)
Launch site: AIR FORCE WESTERN TEST RANGE (AFWTR)

Uplink (MHz):
Downlink (MHz): 400.500
Beacon (MHz):
Mode: 38k4 GFSK
Call sign:
Status: Unknown


Uplink (MHz):
Downlink (MHz): 161.863/2221.500
Beacon (MHz):
Mode: FM
Call sign:
Status: Unknown

Your satellite tracking list
Your tracking list is empty




NASA's NSSDC Master Catalog

Two Line Element Set (TLE):
1 64537U 25135K   26253.11130470  .00000274  00000-0  14458-4 0  9995
2 64537  97.4829   8.2741 0003100 211.0843 149.0210 15.23507420 67808
Source of the keplerian elements: AFSPC